Wind_Speed
12 12 12 12 12 11 11 10 10 10 10 10 9 8 7 7 6 6 6 5 5 4 3 3 2 2 2 2 2 3 3 4 3 3 2 2 2 2 2 2 2 2 1
12 12 12 12 12 11 11 11 10 10 10 10 9 9 8 8 7 7 6 6 5 4 4 3 3 3 2 2 3 3 4 3 4 3 2 2 2 3 2 2 2 2 1
11 12 12 11 12 11 10 10 10 10 10 9 9 9 8 7 7 7 6 6 5 5 5 3 3 3 3 3 4 3 3 3 3 2 2 2 3 3 3 2 1 0 1
10 10 11 11 11 11 10 10 9 9 9 9 8 8 8 7 7 6 6 6 6 5 5 4 4 4 4 4 4 4 4 4 3 3 4 4 3 3 3 2 2 2 2
8 9 10 10 11 11 10 10 9 9 9 10 9 8 8 8 7 6 6 6 6 6 6 5 5 4 4 5 5 4 4 4 5 4 4 4 3 3 3 3 3 3 3
7 8 9 10 10 11 11 10 10 10 10 10 9 9 9 8 7 7 6 6 6 7 7 6 6 5 4 5 5 5 5 5 5 5 4 4 3 3 4 4 5 5 5
8 8 9 10 10 11 11 10 11 11 11 10 10 9 8 8 8 7 7 7 8 7 7 6 6 5 5 5 5 5 5 5 5 5 5 4 4 4 5 5 5 6 6
9 9 9 9 10 11 11 11 11 11 11 11 10 9 9 8 8 8 8 8 9 8 7 7 7 7 6 6 6 6 6 6 6 5 5 4 5 5 5 6 6 6 7
10 11 10 10 10 11 11 11 11 11 11 11 10 10 9 9 8 9 9 9 8 8 8 8 8 7 6 6 6 7 6 6 6 6 6 6 6 6 6 7 7 7 7
11 12 11 11 11 11 11 11 11 11 11 11 11 10 10 10 10 9 9 9 9 9 9 9 8 7 7 7 7 7 7 7 7 7 7 7 8 8 9 9 9 9 9
12 12 12 12 12 12 13 13 14 13 13 13 12 11 11 10 11 10 10 10 10 10 10 10 9 8 7 7 8 8 8 8 8 9 9 9 9 10 10 10 10 10 11
12 12 13 13 13 14 14 15 15 15 15 14 13 12 12 12 11 11 11 11 11 11 10 10 10 8 8 8 8 8 8 9 9 10 10 10 11 11 11 11 12 12 12
12 13 14 15 14 15 15 16 16 16 16 15 15 14 14 14 13 13 13 12 12 11 11 11 11 11 10 9 10 9 9 10 10 10 11 11 11 12 12 12 13 14 13
15 15 16 16 16 17 17 18 18 18 17 17 16 16 16 16 15 15 14 13 13 12 12 12 12 12 12 11 11 11 11 11 12 12 11 11 12 13 13 13 14 15 15
17 18 18 18 18 19 18 19 20 20 20 19 18 18 18 17 17 16 15 15 14 14 14 14 14 13 13 14 14 13 13 13 13 13 13 13 14 14 14 14 15 15 16
20 21 20 20 21 21 21 21 22 21 22 21 20 19 20 19 19 18 18 17 17 16 16 16 15 15 15 15 16 15 15 15 15 14 15 15 15 16 16 16 16 17 17
23 23 23 22 23 23 23 23 23 23 23 23 22 22 22 21 21 21 21 20 19 18 18 17 18 17 17 17 17 17 17 17 16 16 16 17 17 18 17 18 18 19 19
24 25 25 25 25 25 25 24 24 25 25 24 24 24 24 23 23 23 22 22 21 21 20 20 20 20 19 19 19 18 19 19 19 19 18 19 19 19 19 20 20 20 20
27 27 27 27 27 27 26 26 26 26 26 26 26 26 26 25 24 25 24 23 23 22 22 22 22 21 21 21 20 20 21 21 21 21 21 22 22 21 21 21 21 21 21
29 28 27 28 29 29 28 27 27 28 27 27 27 27 27 26 26 26 26 25 25 24 24 24 23 23 22 22 22 23 22 23 23 23 24 24 23 23 23 23 23 23 22
31 30 29 29 29 29 29 29 28 28 29 28 29 29 28 28 27 27 26 25 25 26 25 25 25 25 25 25 24 25 24 25 25 25 25 25 25 25 25 25 26 25 24
32 31 30 30 30 30 30 31 30 30 31 31 30 30 30 29 28 28 27 27 27 27 26 26 26 26 26 26 27 27 26 27 27 27 27 26 26 25 26 27 27 27 26
32 31 31 31 32 32 32 32 32 31 32 31 30 30 30 30 29 28 28 28 28 28 27 27 27 26 26 26 27 27 27 27 27 28 28 27 26 26 27 28 29 28 28
32 32 31 32 33 34 34 34 33 33 32 31 30 30 30 30 30 29 29 28 28 28 29 27 27 27 26 27 27 27 27 28 28 28 29 28 26 27 28 29 29 28 28
33 33 32 32 33 33 34 34 34 34 33 32 32 32 31 31 31 30 30 29 28 28 29 29 29 29 28 27 28 28 29 30 30 30 30 28 28 28 29 29 30 30 29
34 34 33 33 34 34 34 34 34 34 34 34 34 33 32 31 31 30 29 30 30 29 30 30 29 29 30 29 29 30 30 31 32 31 30 30 30 30 31 31 31 31 30
Wind_Direction
31 31 31 31 32 36 39 41 42 43 40 39 35 31 29 25 21 22 26 23 14 16 7 12 3 358 341 338 329 324 323 323 319 329 330 319 299 291 295 312 280 241 224
30 29 29 29 29 33 37 37 39 39 36 34 31 27 23 21 16 12 15 14 9 8 5 360 1 346 329 319 317 311 312 315 316 313 308 313 301 315 313 304 285 248 249
33 29 28 27 27 30 33 33 34 33 29 27 24 22 18 18 16 12 10 7 6 2 353 330 331 325 321 320 320 322 311 312 319 309 309 307 315 320 318 314 296 262 231
28 28 26 24 23 24 30 28 24 20 17 15 17 18 12 10 12 13 12 7 1 354 343 331 321 322 322 317 313 307 305 310 309 301 297 296 309 317 314 303 295 286 267
27 24 21 19 18 16 18 19 20 16 9 10 7 9 8 4 5 3 0 354 346 340 333 333 325 316 307 303 300 299 305 300 298 296 295 296 300 297 290 284 293 289 283
14 15 15 14 14 11 11 11 12 10 8 7 5 1 1 359 358 354 349 342 333 326 320 318 314 305 293 288 291 297 291 289 291 285 290 292 278 281 285 286 285 284 285
4 7 8 6 5 6 6 4 5 4 3 3 2 359 354 356 354 349 343 337 332 326 321 311 309 301 288 279 278 281 279 281 281 283 283 284 275 282 280 284 285 285 285
1 356 354 355 355 354 357 357 357 358 357 356 355 356 351 351 349 343 338 333 332 327 321 312 306 302 290 279 271 275 279 276 277 283 283 287 280 279 280 282 289 290 288
343 343 347 350 348 348 348 349 347 346 345 348 348 345 343 343 343 339 336 333 332 327 318 310 308 305 295 286 280 280 279 274 280 285 279 276 274 280 281 283 286 292 291
332 334 335 341 338 337 341 341 340 338 336 336 335 336 335 336 339 335 330 327 323 322 323 318 311 304 297 290 288 286 276 280 280 282 282 278 276 278 283 286 283 285 291
319 321 329 333 333 331 333 334 331 330 330 328 327 324 321 322 324 325 321 317 315 314 315 312 308 299 294 290 287 284 280 281 284 282 278 278 281 280 282 285 286 286 288
307 310 315 322 323 324 326 326 327 323 323 323 320 319 320 320 318 315 312 310 309 310 311 308 305 296 293 289 285 283 283 282 286 284 280 279 282 280 280 283 286 287 286
298 304 308 312 315 318 318 319 320 318 317 316 315 314 314 312 310 309 308 305 304 303 305 306 305 300 297 293 289 285 286 286 286 284 282 283 282 284 282 283 284 285 286
294 299 302 305 308 311 313 313 314 314 311 309 308 308 307 306 304 302 302 300 297 295 296 297 297 297 288 291 289 285 285 291 291 288 285 286 286 285 282 281 284 285 285
294 295 298 302 303 304 304 305 305 304 304 303 302 301 302 301 301 299 298 296 292 291 291 291 294 294 287 283 286 283 282 286 288 287 286 287 288 287 282 282 284 285 284
295 292 292 295 296 297 298 299 299 299 298 297 297 296 296 296 296 295 294 292 290 288 287 286 285 285 284 284 286 286 285 285 285 285 284 284 285 284 281 282 283 285 284
292 292 292 292 291 292 294 295 295 295 294 294 293 292 291 291 291 292 290 288 287 285 284 284 282 281 282 284 287 282 281 280 281 283 284 285 285 283 282 283 284 284 285
290 290 290 289 288 289 290 291 291 292 291 290 289 290 289 288 288 289 290 288 285 282 280 280 280 281 282 282 284 283 279 280 280 280 282 284 284 281 280 282 283 283 284
286 286 285 286 286 286 287 289 290 290 291 290 290 289 289 285 286 285 285 286 285 283 279 277 277 279 278 278 281 281 279 279 280 278 278 280 281 281 279 281 283 285 285
286 285 284 284 285 285 286 287 287 288 289 288 288 289 290 288 288 286 284 285 283 284 282 276 276 277 276 277 278 278 279 280 281 281 279 278 280 280 282 282 282 283 284
284 283 283 284 284 285 285 286 287 287 287 288 288 288 289 288 286 285 284 284 283 281 280 276 275 276 276 277 277 277 278 280 281 282 280 278 278 279 282 283 281 281 282
284 282 283 283 284 284 285 286 286 286 286 286 286 287 287 287 286 283 281 281 281 281 277 275 274 275 275 276 276 276 277 279 280 282 280 278 278 279 281 281 280 281 281
283 283 283 284 284 284 284 285 286 286 286 285 284 284 284 285 284 284 281 280 280 280 278 275 274 275 276 276 275 275 277 278 281 282 280 278 277 277 279 280 279 278 277
282 283 284 285 284 284 284 285 285 285 286 285 284 283 282 283 283 283 282 280 279 278 276 276 276 275 276 276 276 277 277 278 280 282 280 276 277 278 279 279 278 278 278
283 283 285 285 285 284 285 286 286 285 285 285 283 282 282 282 283 282 281 279 278 278 277 277 277 277 276 277 278 277 277 277 279 280 280 279 279 278 278 279 278 278 279
281 282 283 285 286 286 286 285 285 285 284 284 282 281 282 281 281 280 280 279 278 279 278 278 278 279 276 276 277 278 277 277 279 280 281 280 278 278 277 278 279 277 277
Height
5917 5915 5912 5910 5909 5907 5906 5904 5903 5901 5900 5898 5897 5896 5894 5893 5892 5890 5889 5888 5887 5886 5886 5885 5885 5884 5884 5883 5883 5883 5882 5882 5881 5880 5880 5879 5879 5878 5877 5877 5876 5876 5875
5917 5916 5914 5912 5910 5908 5907 5905 5904 5902 5901 5899 5898 5896 5895 5893 5892 5890 5889 5888 5887 5886 5885 5884 5884 5883 5883 5883 5882 5881 5881 5880 5880 5880 5879 5878 5879 5878 5877 5876 5876 5875 5874
5918 5916 5915 5913 5911 5909 5907 5906 5905 5903 5902 5900 5898 5896 5895 5893 5892 5890 5889 5888 5887 5885 5884 5884 5883 5882 5882 5882 5881 5881 5880 5879 5879 5879 5879 5878 5877 5877 5876 5876 5875 5874 5873
5918 5917 5915 5914 5912 5910 5908 5907 5905 5904 5902 5900 5898 5897 5895 5893 5892 5890 5889 5888 5886 5885 5884 5883 5882 5881 5880 5880 5880 5879 5878 5878 5878 5877 5877 5877 5877 5876 5876 5875 5874 5873 5872
5918 5917 5916 5914 5913 5910 5908 5907 5905 5904 5902 5900 5898 5896 5895 5893 5891 5890 5888 5887 5886 5884 5883 5881 5880 5879 5879 5878 5878 5878 5877 5877 5876 5876 5876 5875 5875 5874 5874 5874 5873 5872 5871
5918 5916 5916 5914 5913 5911 5909 5907 5905 5904 5902 5900 5898 5896 5894 5892 5891 5889 5888 5886 5884 5883 5881 5880 5879 5878 5877 5877 5876 5876 5876 5875 5875 5874 5874 5874 5873 5873 5872 5872 5871 5870 5870
5917 5916 5915 5914 5912 5910 5909 5907 5905 5904 5902 5899 5897 5895 5893 5892 5890 5888 5887 5885 5883 5881 5880 5878 5877 5876 5875 5875 5874 5874 5874 5873 5873 5872 5872 5872 5871 5871 5871 5870 5869 5868 5867
5916 5916 5915 5913 5912 5910 5908 5907 5905 5903 5901 5899 5896 5894 5892 5891 5889 5887 5885 5883 5882 5880 5878 5877 5876 5875 5874 5873 5872 5872 5871 5871 5871 5870 5870 5869 5869 5869 5868 5868 5867 5865 5864
5915 5915 5914 5912 5911 5910 5908 5906 5904 5902 5900 5898 5896 5894 5892 5890 5887 5886 5884 5882 5880 5879 5877 5875 5874 5873 5872 5871 5871 5870 5869 5869 5869 5868 5868 5867 5867 5866 5866 5865 5864 5863 5862
5914 5913 5912 5911 5910 5908 5906 5904 5903 5901 5899 5896 5894 5892 5891 5888 5886 5884 5882 5880 5878 5877 5875 5874 5872 5871 5870 5869 5869 5868 5867 5867 5866 5866 5865 5865 5864 5863 5863 5862 5861 5860 5859
5912 5911 5910 5908 5907 5905 5904 5903 5901 5899 5897 5895 5893 5891 5889 5886 5884 5882 5880 5878 5876 5875 5873 5871 5870 5869 5868 5867 5866 5865 5865 5864 5863 5863 5862 5861 5861 5860 5859 5858 5857 5857 5856
5910 5908 5907 5906 5905 5903 5901 5900 5899 5897 5894 5892 5890 5888 5886 5883 5882 5880 5878 5876 5874 5872 5870 5869 5867 5866 5865 5864 5863 5862 5862 5861 5860 5859 5859 5858 5857 5856 5856 5855 5854 5853 5852
5907 5906 5905 5904 5902 5900 5898 5897 5895 5894 5891 5889 5888 5886 5884 5881 5879 5877 5875 5873 5871 5869 5868 5866 5865 5863 5862 5861 5860 5859 5858 5857 5856 5856 5855 5854 5853 5853 5852 5851 5850 5849 5848
5903 5902 5901 5900 5899 5897 5895 5893 5891 5889 5887 5886 5884 5882 5880 5878 5876 5873 5871 5869 5868 5866 5864 5863 5861 5860 5858 5857 5857 5856 5855 5854 5853 5852 5851 5850 5849 5848 5847 5847 5846 5845 5844
5899 5898 5897 5896 5895 5893 5891 5889 5887 5885 5883 5881 5880 5878 5876 5874 5872 5870 5867 5866 5864 5863 5861 5859 5858 5856 5855 5854 5853 5851 5851 5850 5849 5848 5847 5846 5845 5844 5843 5842 5841 5840 5839
5894 5893 5892 5891 5889 5888 5886 5885 5882 5880 5878 5876 5874 5873 5872 5870 5867 5865 5863 5862 5860 5858 5857 5855 5854 5852 5851 5850 5849 5847 5846 5845 5844 5844 5843 5841 5840 5839 5838 5837 5836 5835 5833
5888 5887 5886 5885 5883 5882 5880 5879 5877 5875 5872 5870 5869 5867 5866 5864 5862 5860 5858 5856 5854 5853 5852 5850 5849 5847 5846 5845 5844 5842 5841 5840 5839 5838 5837 5836 5835 5833 5832 5831 5830 5828 5827
5882 5881 5880 5878 5877 5875 5873 5872 5870 5869 5866 5864 5862 5861 5859 5857 5856 5854 5852 5850 5848 5847 5846 5844 5843 5842 5841 5840 5838 5837 5835 5834 5833 5832 5831 5830 5828 5827 5826 5825 5824 5822 5820
5875 5874 5873 5871 5869 5868 5866 5865 5863 5861 5859 5858 5856 5854 5852 5850 5848 5847 5845 5843 5841 5840 5839 5838 5836 5835 5834 5833 5832 5830 5829 5828 5827 5826 5825 5823 5822 5821 5819 5818 5817 5815 5814
5867 5866 5865 5863 5861 5860 5859 5857 5855 5853 5852 5850 5849 5847 5844 5842 5841 5839 5838 5836 5834 5833 5831 5830 5829 5828 5827 5826 5825 5823 5822 5821 5819 5818 5817 5816 5815 5813 5812 5811 5809 5808 5807
5859 5857 5856 5854 5853 5852 5850 5849 5847 5845 5843 5842 5840 5838 5836 5835 5833 5832 5830 5828 5826 5825 5824 5823 5822 5821 5820 5819 5818 5816 5815 5813 5812 5811 5810 5809 5807 5806 5805 5803 5802 5800 5799
5850 5848 5846 5845 5844 5842 5841 5839 5838 5836 5834 5833 5831 5829 5827 5826 5824 5823 5821 5820 5818 5817 5815 5814 5814 5813 5812 5811 5809 5808 5807 5805 5804 5803 5802 5801 5799 5798 5797 5795 5794 5792 5791
5841 5839 5837 5836 5834 5833 5831 5830 5828 5826 5825 5823 5822 5820 5818 5817 5815 5814 5812 5811 5809 5808 5806 5805 5804 5804 5803 5802 5801 5799 5798 5796 5795 5794 5793 5792 5791 5790 5788 5787 5785 5783 5782
5832 5829 5827 5826 5824 5822 5821 5819 5818 5816 5815 5813 5812 5810 5809 5808 5806 5804 5803 5802 5800 5799 5798 5796 5796 5795 5794 5793 5792 5791 5789 5788 5787 5785 5784 5782 5782 5781 5780 5778 5776 5774 5773
5822 5819 5817 5815 5814 5812 5810 5808 5806 5805 5804 5803 5802 5800 5799 5798 5797 5795 5793 5792 5791 5789 5789 5788 5787 5786 5785 5784 5783 5781 5780 5779 5777 5776 5775 5773 5772 5771 5770 5768 5767 5765 5764
5811 5809 5807 5805 5803 5801 5799 5797 5796 5794 5793 5792 5791 5790 5789 5788 5787 5786 5784 5783 5782 5781 5779 5778 5777 5776 5775 5774 5774 5772 5771 5770 5768 5767 5766 5764 5763 5762 5760 5759 5758 5756 5755